Home   Weather   Porto   Past weeks

Flag for Portugal Past Weather in Porto, Portugal — Yesterday and Last 2 Weeks

Now
59 °F

Passing clouds.


Feels Like: 56 °F
Forecast: 47 / 68 °F
Wind: 14 mph from Northeast

Location: Porto / Pedras Rubras

Current Time: Apr 27, 2017 at 12:22:12 pm

Latest Report: Apr 27, 2017 at 12:00 pm


Visibility: N/A

Pressure: 30.01 "Hg

Humidity: 27%

Dew Point: 25 °F

Location of PortoLocation

Past Weather in Porto — Graph

°F

Porto Temperature Yesterday

Maximum temperature yesterday: 64 °F (at 2:00 pm)
Minimum temperature yesterday: 45 °F (at 6:00 am)
Average temperature yesterday: 55 °F

High & Low Weather Summary for the Past Weeks

 TemperatureHumidityPressure
High82 °F (Apr 19, 5:30 pm)100% (Apr 23, 12:30 am)30.12 "Hg (Apr 23, 12:30 am)
Low45 °F (Apr 26, 6:00 am)21% (Apr 19, 8:30 pm)29.77 "Hg (Apr 19, 6:30 pm)
Average61 °F63%29.96 "Hg
* Reported Apr 19 8:00 am — Apr 27 11:00 am, Porto, Weather by CustomWeather, © 2017

Note: Actual official high and low records may vary slightly from our data, if they occured in-between our weather recording intervals... More about our weather records

Advertising

Porto Weather History for the Previous 24 Hours

Scroll right to see more
 ConditionsComfort  
Time TempWeatherWind HumidityBarometerVisibility
11:00 am
Thu, Apr 27
57 °FPassing clouds.15 mph27%30.01 "HgN/A
10:30 am55 °FPassing clouds.16 mph31%30.01 "HgN/A
10:00 am54 °FPassing clouds.13 mph33%30.01 "HgN/A
9:30 am52 °FPassing clouds.12 mph38%30.01 "HgN/A
8:30 am50 °FPassing clouds.9 mph40%29.98 "HgN/A
8:00 am48 °FPassing clouds.7 mph46%29.98 "HgN/A
7:30 am46 °FPassing clouds.7 mph53%29.98 "HgN/A
7:00 am46 °FPassing clouds.8 mph50%29.95 "HgN/A
6:30 am46 °FClear.13 mph53%29.95 "Hg10 mi
5:30 am48 °FClear.9 mph54%29.92 "Hg10 mi
4:30 am48 °FClear.7 mph54%29.92 "Hg10 mi
4:00 am46 °FClear.7 mph57%29.92 "Hg10 mi
3:30 am48 °FClear.7 mph58%29.92 "Hg10 mi
2:30 am48 °FClear.6 mph58%29.92 "Hg10 mi
2:00 am48 °FClear.7 mph58%29.92 "Hg10 mi
1:30 am48 °FClear.7 mph58%29.92 "Hg10 mi
1:00 am48 °FClear.8 mph54%29.89 "Hg10 mi
12:30 am52 °FClear.7 mph47%29.89 "Hg10 mi
11:30 pm
Wed, Apr 26
52 °FClear.8 mph47%29.89 "Hg10 mi
10:30 pm54 °FClear.12 mph41%29.89 "Hg10 mi
10:00 pm55 °FClear.13 mph38%29.89 "Hg10 mi
9:30 pm55 °FClear.13 mph38%29.89 "Hg10 mi
8:30 pm59 °FClear.16 mph29%29.86 "Hg10 mi
7:30 pm61 °FPassing clouds.18 mph29%29.86 "HgN/A
7:00 pm61 °FPassing clouds.18 mph31%29.83 "HgN/A
6:30 pm63 °FPassing clouds.18 mph30%29.83 "HgN/A
6:00 pm63 °FScattered clouds.18 mph30%29.83 "HgN/A
5:30 pm64 °FPassing clouds.20 mph28%29.83 "HgN/A
5:00 pm64 °FPassing clouds.16 mph30%29.83 "HgN/A
4:30 pm64 °FPassing clouds.17 mph30%29.83 "HgN/A
4:00 pm64 °FPassing clouds.16 mph32%29.83 "HgN/A
3:30 pm64 °FPassing clouds.14 mph32%29.86 "HgN/A
3:00 pm64 °FPassing clouds.16 mph34%29.86 "HgN/A
2:30 pm64 °FPassing clouds.14 mph34%29.86 "HgN/A
2:00 pm64 °FPassing clouds.16 mph37%29.86 "HgN/A
1:30 pm63 °FPassing clouds.14 mph39%29.86 "HgN/A
1:00 pm61 °FPassing clouds.14 mph42%29.89 "HgN/A
12:30 pm61 °FPassing clouds.14 mph42%29.89 "HgN/A
12:00 pm59 °FPassing clouds.13 mph48%29.89 "HgN/A
Weather by CustomWeather, © 2017

See weather overviewHow to use our weather pages